• Join FlightAware (Why Join?)
  • Login
  • US Flag GB Flag 
01:05 EDT


 

Airport Tracker/Info


-or-


 

Live Flight TrackerFlight Track Log ✈ N920AC ✈ 26-Aug-2014 ✈ KSRQ - KAPF

Flight Track Log - Related Links

Times and Time Zones

All times are in EDT time to prevent confusion due to time zone crossing. See the N920AC flight status page for this flight to view local times or setup timezone preferences in your user account.

Time Position Orientation Groundspeed Altitude Reporting Facility
EDT Latitude Longitude Course Direction KTS MPH feet Rate Location/Type
13:31 27.3833 -82.5500 180° South 78 90 600  Level Tampa TRACON
13:32 27.3500 -82.5500 180° South 92 106 1,100 420 Climbing Tampa TRACON
13:33 27.3333 -82.5667 222° Southwest 94 108 1,500 420 Climbing Tampa TRACON
13:34 27.3167 -82.5667 180° South 96 110 1,900 360 Climbing Tampa TRACON
13:35 27.2833 -82.5667 180° South 91 105 2,300 420 Climbing Tampa TRACON
13:36 27.2624 -82.3957 138° Southeast  Level FlightAware Approximate
13:36 27.2667 -82.5500 138° Southeast 81 93 2,800  Level Tampa TRACON
13:37 27.2333 -82.5333 156° South 82 94 3,200 360 Climbing Tampa TRACON
13:38 27.2167 -82.5333 180° South 81 93 3,700 420 Climbing Tampa TRACON
13:39 27.2000 -82.5167 138° Southeast 83 96 4,100 360 Climbing Tampa TRACON
13:40 27.1833 -82.5000 138° Southeast 83 96 4,400 300 Climbing Tampa TRACON
13:41 27.1667 -82.5000 180° South 81 93 4,700 240 Climbing Tampa TRACON
13:42 27.1500 -82.4667 119° Southeast 84 97 5,000 120 Climbing Tampa TRACON
13:43 27.1183 -82.4569 165° South 84 97 5,000  Level Miami Center
13:44 27.0944 -82.4436 154° Southeast 89 102 5,000  Level Miami Center
13:45 27.0739 -82.4267 144° Southeast 89 102 5,000  Level Miami Center
13:46 27.0533 -82.4061 138° Southeast 91 105 5,000  Level Miami Center
13:47 27.0267 -82.3836 143° Southeast 96 110 5,000  Level Miami Center
13:48 27.0039 -82.3678 148° Southeast 96 110 5,000  Level Miami Center
13:49 26.9803 -82.3486 144° Southeast 97 112 5,100  Climbing Miami Center
13:50 26.9569 -82.3333 150° Southeast 98 113 5,000 -60 Descending Miami Center
13:51 26.9339 -82.3178 149° Southeast 98 113 5,000  Level Miami Center
13:52 26.9072 -82.3028 153° Southeast 98 113 5,000  Level Miami Center
13:53 26.8781 -82.2992 174° South 107 123 5,000  Level Miami Center
13:54 26.8469 -82.2950 173° South 106 122 5,000  Level Miami Center
13:56 26.8183 -82.2925 176° South 106 122 5,000  Level Miami Center
13:57 26.7864 -82.2889 174° South 106 122 5,000  Level Miami Center
13:58 26.7572 -82.2867 176° South 106 122 5,000  Level Miami Center
13:59 26.7258 -82.2839 175° South 104 120 5,000  Level Miami Center
14:00 26.6978 -82.2806 174° South 104 120 5,000  Level Miami Center
14:01 26.6667 -82.2764 173° South 104 120 5,000  Level Miami Center
14:02 26.6383 -82.2733 174° South 104 120 5,000  Level Miami Center
14:03 26.6119 -82.2625 160° South 96 110 5,000  Level Miami Center
14:04 26.5881 -82.2492 153° Southeast 95 109 5,000  Level Miami Center
14:05 26.5639 -82.2322 148° Southeast 96 110 5,000  Level Miami Center
14:06 26.5439 -82.2139 141° Southeast 93 107 5,000  Level Miami Center
14:07 26.5247 -82.1933 136° Southeast 96 110 5,000  Level Miami Center
14:08 26.5003 -82.1769 149° Southeast 96 110 5,000  Level Miami Center
14:09 26.4764 -82.1625 152° Southeast 96 110 5,000  Level Miami Center
14:10 26.4514 -82.1447 148° Southeast 97 112 5,000  Level Miami Center
14:11 26.4292 -82.1300 149° Southeast 97 112 5,000  Level Miami Center
14:12 26.4019 -82.1200 162° South 97 112 5,000  Level Miami Center
14:13 26.3758 -82.1086 159° South 99 114 5,000 -60 Level Miami Center
14:14 26.3544 -82.0889 140° Southeast 97 112 4,900 -120 Descending Miami Center
14:15 26.3269 -82.0833 170° South 98 113 4,800 -360 Descending Miami Center
14:16 26.2944 -82.0808 176° South 108 124 4,200 -540 Descending Miami Center
14:17 26.2647 -82.0772 174° South 109 125 3,700 -540 Descending Miami Center
14:18 26.2353 -82.0633 157° South 109 125 3,200 -540 Descending Miami Center
14:19 26.2069 -82.0539 163° South 108 124 2,600 -540 Descending Miami Center
14:20 26.1808 -82.0381 151° Southeast 108 124 2,100 -300 Descending Miami Center
14:21 26.1542 -82.0258 158° South 99 114 2,100  Level Miami Center
14:22 26.1286 -82.0153 160° South 98 113 2,200  Climbing Miami Center
14:23 26.0992 -82.0028 159° South 101 116 2,100 -60 Descending Miami Center
14:24 26.0700 -81.9975 171° South 106 122 2,100  Level Miami Center
14:25 26.0472 -81.9769 141° Southeast 100 115 2,100  Level Miami Center
14:26 26.0294 -81.9569 135° Southeast 96 110 2,100  Level Miami Center
14:27 26.0136 -81.9314 125° Southeast 95 109 2,100  Level Miami Center
14:28 26.0264 -81.9111 55° Northeast 90 104 2,100 -120 Level Miami Center
14:29 26.0464 -81.8922 40° Northeast 91 105 1,900 -180 Descending Miami Center
14:30 26.0664 -81.8728 41° Northeast 95 109 1,800 -60 Descending Miami Center
14:32 26.0828 -81.8525 48° Northeast 86 99 1,800 -240 Level Miami Center
14:33 26.0961 -81.8350 50° Northeast 79 91 1,400 -480 Descending Miami Center
14:34 26.1136 -81.8175 42° Northeast 79 91 900 -480 Descending Miami Center
14:35 26.1289 -81.8014 43° Northeast 79 91 500 -300 Descending Miami Center
14:36 26.1444 -81.7836 46° Northeast 77 89 300 -240 Descending Miami Center